Terminal Aerodrome Forecast
Issued by NWS Boston, MA

Home | Current Version | Previous Version | Text Only | Print | Product List | Glossary On
Versions: 1 2 3 4 5 6 7 8 9 10 11 12 13 14 15 16 17 18 19 20 21 22 23 24 25 26 27 28 29 30 31 32 33 34 35 36 37 38 39 40 41 42 43 44 45 46 47 48
000
FTUS41 KBOX 222116 AAA
TAFPVD
TAF AMD
KPVD 222116Z 2221/2318 05008KT P6SM SCT025 SCT070 BKN100
     FM230300 05006KT P6SM BKN020
     FM231300 03008KT P6SM BKN025
     FM231500 05009KT P6SM BKN040=

USA.gov is the U.S. government's official web portal to all federal, state and local government web resources and services.